Wind_Speed
10 9 8 8 8 8 8 8 7 7 8 8 7 8 9 9 9 9 10 10 10 9 8 8 8 9 9 9 9 9 9 11 10 11 14 8 7 10 10 8 9 13 16 17 18 19 20 19 18 17 15 15 16 16 16 16 15 11 7 8 8 9 9 6 6 5 2 3 5 3 3 7 2 7 7 8 13 9 12 9 8 8 5 10 14 20 24 22
11 10 9 9 8 8 8 8 7 7 9 9 8 8 8 9 9 9 9 9 9 10 9 9 9 9 8 9 8 9 10 11 12 15 14 6 7 8 9 10 10 14 18 20 20 22 21 20 19 18 17 16 16 17 15 15 16 11 7 8 9 10 8 5 5 1 1 2 4 3 4 4 2 4 6 8 13 12 13 10 10 10 10 14 19 21 21 22
13 12 11 10 9 9 8 8 8 8 9 9 8 8 9 8 8 8 9 9 9 9 10 10 9 9 8 8 8 10 10 12 14 14 9 5 5 5 7 10 11 14 19 19 18 21 20 18 18 18 18 16 15 17 15 14 14 13 11 8 9 12 9 2 3 4 2 3 1 1 2 4 2 4 6 7 10 14 14 13 12 11 13 15 19 19 19 20
15 14 13 11 10 9 9 9 8 9 9 9 8 8 9 9 8 8 8 9 8 8 9 10 11 9 8 8 8 9 10 13 10 5 4 5 3 3 6 9 11 14 17 16 15 19 18 16 17 18 17 15 16 17 14 14 13 12 12 10 10 11 9 3 4 7 3 3 5 1 3 6 4 4 8 9 9 11 12 13 15 12 14 18 20 19 18 19
15 15 15 13 12 10 10 9 9 9 9 9 8 8 9 9 9 8 8 8 8 8 8 9 10 10 9 8 8 8 8 7 2 6 4 4 2 2 5 8 11 15 18 13 15 18 18 17 17 18 17 13 15 15 13 17 14 10 13 15 16 9 6 5 5 4 3 4 6 5 6 4 2 6 10 10 9 7 9 13 16 16 16 18 21 20 18 18
14 14 15 15 13 12 11 11 10 10 9 9 9 9 9 9 10 9 9 9 8 8 8 8 10 10 10 9 8 7 5 4 3 3 4 4 2 2 4 8 12 17 16 12 15 18 18 18 18 18 17 13 14 13 13 19 16 10 12 15 19 14 7 6 3 3 4 7 9 7 5 4 5 8 7 9 10 8 8 9 10 16 17 15 20 20 18 17
13 13 14 14 14 14 12 12 11 11 10 10 10 9 9 9 10 10 9 9 9 9 8 8 9 10 10 10 9 5 11 11 3 5 6 4 3 2 3 8 12 17 15 13 16 17 17 19 19 18 15 12 14 15 14 18 18 13 12 12 17 16 11 9 4 4 7 9 9 8 5 5 10 7 6 9 9 8 7 7 5 11 16 13 16 19 16 17
13 13 13 13 14 14 14 13 12 12 11 11 10 10 10 10 10 10 10 10 9 9 8 8 9 10 10 10 8 9 14 10 5 7 6 5 4 3 4 7 12 15 14 15 16 16 17 19 20 18 13 12 14 14 14 17 17 15 14 13 12 12 13 13 11 9 9 10 9 10 9 9 12 5 5 9 9 9 7 10 9 9 15 13 13 16 16 17
12 13 13 13 13 13 13 14 13 13 12 11 11 10 10 10 11 11 11 11 10 10 9 9 9 10 11 9 9 11 8 5 8 12 8 6 6 4 5 7 11 14 13 14 15 15 16 17 19 18 14 13 14 14 16 15 12 13 17 18 12 9 13 13 14 14 12 11 10 11 12 12 12 6 6 12 11 10 8 10 12 11 14 13 13 15 15 17
12 12 12 13 13 13 13 13 14 14 13 12 11 11 10 10 11 11 12 12 11 11 10 10 10 10 10 9 11 9 2 4 5 9 9 8 8 6 7 9 11 14 13 13 14 15 15 14 15 18 15 13 14 13 16 15 10 11 15 20 18 12 12 13 15 16 14 13 13 12 12 14 13 6 9 14 12 11 10 10 12 13 13 12 12 13 14 17
12 12 12 12 12 13 13 13 14 14 14 13 12 12 11 11 11 11 11 12 12 12 11 10 11 11 9 8 13 9 2 2 2 5 9 9 9 8 10 12 12 13 13 12 13 14 14 12 10 13 12 11 13 12 15 16 14 12 10 15 19 16 13 14 14 15 14 12 14 13 12 16 14 10 14 14 14 13 11 11 13 13 13 12 10 12 14 16
12 12 12 12 12 13 13 13 13 13 14 14 13 12 12 12 11 11 11 11 12 11 11 11 11 11 9 11 18 12 4 3 4 5 8 10 9 10 11 11 11 13 12 12 12 12 13 11 9 12 8 7 11 9 12 17 17 16 11 11 14 15 14 15 15 15 14 10 13 14 12 16 13 12 19 13 13 14 13 13 13 13 13 15 11 12 14 15
12 12 12 12 12 12 13 13 13 13 14 13 14 13 12 12 11 11 10 10 11 11 11 11 11 10 8 12 15 10 6 5 7 7 8 10 11 10 11 10 10 12 11 11 11 11 13 10 10 16 10 7 10 3 4 13 16 14 12 9 10 12 13 17 18 17 16 12 14 14 9 13 14 16 22 14 12 13 14 14 14 13 13 17 15 13 14 16
12 12 12 12 12 12 12 13 13 13 13 13 14 13 13 12 11 11 11 11 10 10 11 10 11 8 8 15 12 10 10 7 9 11 10 11 12 11 11 10 11 11 10 10 10 9 12 10 11 16 13 11 11 2 2 10 11 11 11 10 9 9 10 16 19 18 16 13 15 14 8 11 14 19 25 19 17 17 16 16 15 14 13 16 17 14 13 15
13 13 13 13 13 13 13 13 13 13 13 14 14 14 14 13 12 12 12 13 11 11 11 10 10 6 9 17 13 12 13 11 13 13 12 12 12 11 11 11 11 10 10 10 9 8 10 11 13 14 13 15 12 5 7 9 8 10 10 9 10 9 10 14 19 18 16 13 16 14 8 9 14 21 28 21 19 19 17 17 16 14 13 14 15 14 14 14
14 13 13 13 13 13 13 13 13 13 13 13 14 14 14 14 13 13 14 14 13 12 9 7 7 7 10 10 7 10 10 11 15 15 15 14 12 11 11 12 11 10 10 10 9 9 11 12 14 14 12 13 11 7 8 8 8 9 9 10 11 11 11 11 15 17 17 14 16 15 10 9 14 17 25 23 19 21 18 17 16 15 14 13 14 16 16 14
14 14 14 14 13 13 13 13 13 13 13 13 14 14 15 15 14 14 15 15 13 10 7 5 3 8 11 6 6 11 10 9 12 15 16 14 12 9 10 12 12 11 11 10 9 10 13 13 13 12 11 9 9 9 9 9 9 8 9 10 11 13 13 11 12 15 18 16 15 16 14 12 6 4 17 19 17 19 18 18 17 15 14 14 16 17 16 14
15 15 14 14 14 13 13 13 14 13 13 13 14 14 15 15 15 16 17 15 10 6 7 8 6 7 9 10 9 6 8 9 10 14 15 13 12 9 10 13 11 12 12 11 12 13 14 14 11 8 8 8 9 10 9 9 9 9 10 10 10 13 13 13 11 13 18 18 15 15 15 16 8 7 12 14 15 17 18 17 16 16 15 15 17 17 16 12
15 15 15 14 14 14 13 13 13 13 13 12 13 14 14 15 15 16 13 9 6 5 6 8 13 7 5 8 10 4 6 8 10 12 14 14 12 11 12 12 12 14 14 10 12 16 14 11 10 8 8 10 10 12 12 12 12 13 12 10 12 12 10 14 12 11 15 16 14 14 14 16 16 10 12 13 16 16 17 17 16 16 16 16 17 17 17 14
15 15 15 15 14 14 14 13 13 13 12 11 12 12 11 12 10 6 4 10 15 15 15 11 16 15 11 7 10 8 8 8 11 13 15 14 12 14 15 13 13 14 13 9 10 15 13 8 9 9 10 12 12 15 14 10 11 10 11 11 13 12 8 14 13 10 11 12 13 16 14 14 17 14 12 14 16 16 16 17 17 17 16 16 17 17 17 16
15 15 15 15 15 14 14 14 12 12 12 11 10 8 9 10 8 5 4 12 20 21 23 19 17 19 16 10 8 9 10 11 13 14 15 15 14 14 15 15 13 11 12 12 11 11 11 9 10 11 13 12 12 15 13 7 8 9 9 8 11 11 9 15 13 10 10 9 10 15 15 15 15 14 12 14 15 14 16 16 17 18 17 17 17 17 16 14
16 15 15 15 15 15 14 14 13 12 11 10 10 9 9 10 8 8 11 14 20 21 22 21 20 20 18 14 10 10 12 13 15 15 16 17 17 14 14 15 12 9 12 12 10 8 9 9 11 13 13 9 7 10 10 8 8 9 8 7 8 9 9 12 10 9 8 7 8 13 15 13 13 14 13 13 13 13 17 17 17 18 17 17 18 18 17 15
16 16 16 16 15 16 15 15 13 12 11 11 11 10 9 9 8 9 11 13 18 21 19 19 21 20 17 16 14 13 14 14 14 17 20 18 19 16 13 13 12 11 12 11 9 8 7 10 14 13 8 6 5 6 8 8 9 10 8 8 8 8 10 9 8 8 8 7 9 12 11 10 11 13 12 11 13 14 16 18 17 18 17 17 18 18 17 17
16 16 16 16 16 16 16 16 14 12 11 10 10 11 11 10 8 10 11 13 15 17 16 14 16 18 17 15 15 17 17 15 13 17 22 20 19 16 12 13 13 11 12 13 12 10 9 9 13 10 7 8 10 8 10 9 8 10 12 11 9 11 13 7 5 10 9 8 11 10 7 8 10 12 10 10 13 14 15 17 17 18 17 16 17 17 17 18
17 17 17 17 16 16 16 15 10 8 7 8 9 9 9 8 8 9 10 11 11 10 10 10 10 12 13 12 13 18 18 16 16 16 22 22 19 14 11 13 12 10 12 14 13 12 11 5 7 8 8 11 12 9 11 10 8 10 13 15 14 12 12 7 6 8 7 8 11 11 8 8 11 14 13 11 12 13 14 16 17 18 18 17 18 18 18 18
18 18 17 17 16 16 14 9 3 5 8 9 7 4 4 5 8 8 6 7 7 5 8 9 8 8 12 13 15 17 14 15 17 16 20 22 20 15 10 10 10 10 11 12 9 8 7 7 8 9 9 11 12 10 12 12 9 8 11 16 17 13 11 11 10 9 7 5 9 13 10 7 9 12 14 13 13 14 14 15 16 18 19 18 18 18 18 18
18 18 17 17 17 17 13 7 7 9 10 5 2 2 4 6 7 5 4 6 6 5 7 7 6 6 10 13 18 16 8 11 17 17 20 20 20 17 11 9 10 9 7 8 7 7 6 7 8 10 10 11 10 8 11 13 10 8 9 16 17 14 11 10 9 8 7 3 5 12 12 8 6 9 12 14 13 15 15 13 14 17 18 18 17 18 17 17
18 18 18 17 17 17 15 13 12 11 8 4 3 5 6 7 6 3 4 6 2 4 5 5 5 6 7 11 21 17 3 10 16 16 20 20 19 17 12 10 10 8 8 7 6 7 9 9 8 10 11 9 9 10 12 13 12 10 7 11 14 15 12 9 9 9 8 6 5 10 12 9 6 7 10 13 14 15 16 16 14 13 17 17 16 17 17 16
18 18 19 18 17 18 16 15 13 10 8 7 9 10 7 7 5 3 6 5 2 3 4 5 6 8 10 12 20 19 7 9 11 14 22 20 18 16 11 11 11 10 10 10 8 6 7 12 12 12 10 9 12 13 11 13 12 7 6 8 12 15 13 10 10 9 7 8 8 9 11 9 6 7 10 11 12 13 13 13 11 10 13 13 12 13 14 15
17 18 20 20 17 14 13 14 12 9 9 11 12 10 8 7 5 6 7 4 4 3 5 6 7 10 13 12 15 18 13 9 8 14 21 19 19 17 12 10 10 10 10 11 13 7 3 6 9 11 12 10 8 6 5 10 12 5 6 10 10 11 10 8 8 7 6 7 9 10 11 9 6 6 9 9 10 11 11 9 7 9 10 9 10 13 14 16
17 18 20 20 16 10 10 9 6 4 7 11 11 8 7 6 5 7 7 3 5 5 7 7 7 10 14 13 11 14 14 10 9 14 15 14 16 15 11 8 8 8 8 8 12 11 6 7 7 11 15 9 3 3 6 11 11 7 8 9 8 8 7 7 7 8 7 7 9 11 11 10 6 3 7 10 9 7 10 11 10 10 11 10 12 15 16 18
17 18 18 18 15 11 8 7 6 6 7 7 8 8 8 7 7 8 6 3 3 4 6 6 8 10 13 13 11 14 14 10 12 14 12 11 11 11 11 9 7 8 8 7 9 10 9 10 10 12 14 10 6 7 9 9 10 9 9 9 8 7 7 8 8 8 8 6 6 8 9 9 5 3 2 6 9 6 4 10 11 11 14 16 16 17 18 18
17 17 17 16 13 10 8 8 11 12 9 6 7 9 8 7 8 8 9 7 2 3 1 4 7 8 11 12 11 15 14 10 13 14 13 13 11 11 13 13 11 9 7 7 9 8 7 9 13 13 11 11 12 8 7 8 9 10 9 8 8 7 6 8 8 7 8 6 5 7 6 7 7 6 7 6 8 7 6 9 11 10 11 12 15 18 17 14
16 16 15 12 9 7 7 7 8 8 8 8 8 9 10 9 8 8 10 11 7 3 3 4 6 8 9 11 10 13 13 10 14 14 13 14 10 10 12 14 15 12 7 7 8 8 9 8 12 12 9 12 14 12 7 7 9 10 10 8 7 6 6 6 6 5 6 5 7 8 5 6 7 5 7 6 10 11 8 7 9 10 11 13 14 17 16 12
16 14 12 9 7 6 6 6 6 5 7 10 9 8 10 9 7 9 9 10 11 8 7 6 8 9 10 10 11 14 14 10 13 15 13 13 11 10 11 12 15 14 9 7 6 7 10 7 10 15 11 12 15 14 10 8 8 9 9 8 7 7 6 4 2 1 2 3 5 7 4 2 3 6 7 6 8 12 11 8 9 9 11 13 12 15 18 16
12 10 8 4 3 5 6 6 7 5 7 11 9 8 10 8 8 9 7 6 10 10 10 10 9 10 9 9 10 13 15 12 13 13 11 13 13 12 12 11 13 14 11 7 4 5 8 6 9 16 13 11 14 14 12 10 6 6 8 9 7 7 7 6 3 3 2 5 4 6 5 4 6 7 9 8 6 8 11 9 8 9 10 11 14 16 17 16
6 6 4 1 4 8 9 10 8 6 9 11 9 8 9 9 11 12 7 4 7 9 9 9 8 10 9 8 9 12 14 12 12 11 10 12 12 13 15 13 13 16 13 9 5 4 6 5 7 13 13 13 11 9 11 11 8 5 6 7 6 5 5 5 4 4 6 7 6 6 7 7 6 6 9 12 10 8 9 9 8 8 10 12 14 16 17 17
5 6 5 3 7 12 12 11 8 8 11 10 10 10 10 10 13 15 10 5 7 9 10 9 7 8 10 9 8 9 11 10 11 11 9 8 8 11 14 13 15 17 16 12 6 4 5 6 6 11 13 13 10 8 9 10 11 9 6 5 6 5 6 5 5 4 6 7 6 6 8 7 4 5 10 12 11 9 10 9 8 8 10 12 14 15 17 18
5 8 6 2 9 14 9 9 9 11 11 9 9 9 10 12 15 15 11 6 8 10 9 9 10 7 8 10 7 4 8 11 11 10 9 7 5 5 6 6 11 16 17 16 9 4 5 5 4 9 10 9 9 9 9 8 11 11 8 7 6 5 5 5 4 5 6 6 5 7 8 3 3 1 8 10 10 10 9 9 9 9 10 11 12 12 13 14
6 7 2 2 8 11 3 9 10 10 10 8 9 9 10 12 14 16 13 9 9 9 8 10 11 7 7 11 10 4 4 8 8 6 6 7 7 4 5 7 8 12 15 15 11 7 6 5 5 7 8 7 6 8 11 9 9 10 8 8 7 5 4 4 4 5 7 6 5 7 6 4 6 5 5 9 8 9 10 10 9 10 11 10 11 11 11 11
8 6 2 5 5 5 1 6 8 9 8 8 10 11 11 10 9 13 14 13 11 10 10 11 9 8 8 10 9 6 4 6 6 4 4 3 4 5 4 6 7 8 8 10 10 7 6 6 7 6 6 8 8 9 12 11 8 7 9 10 9 8 5 5 6 7 7 6 5 5 3 4 4 5 4 6 6 7 11 11 11 12 13 13 12 12 12 12
9 4 4 8 6 2 3 6 7 8 7 7 9 10 8 4 6 11 13 12 12 11 11 10 8 9 8 7 8 7 7 7 6 5 3 1 3 3 5 6 6 5 5 7 5 0 1 4 7 8 7 7 5 5 6 6 7 7 7 8 8 9 7 7 7 6 6 7 6 6 4 3 2 4 4 3 5 8 11 13 13 13 13 13 14 14 14 14
6 3 4 7 7 3 6 6 6 7 7 8 9 9 7 4 6 12 13 11 10 10 10 9 8 10 9 8 9 8 7 8 6 5 5 5 2 5 3 8 7 6 6 6 2 3 1 4 7 8 8 6 4 3 4 5 6 8 7 7 7 8 7 8 8 6 6 7 6 7 5 3 2 2 2 3 7 10 11 13 14 15 15 14 15 15 14 14
6 2 1 7 8 3 5 5 4 4 5 8 8 8 9 9 9 11 12 10 8 7 8 8 8 9 10 8 7 8 7 7 7 7 5 5 3 5 3 4 5 3 0 0 2 1 3 4 6 7 6 7 7 7 6 6 7 8 8 8 9 10 10 9 7 6 6 7 6 6 3 3 3 1 1 5 8 10 11 14 15 15 16 15 15 15 14 14
6 3 1 6 8 5 3 5 5 5 5 7 7 6 8 9 8 9 10 8 7 6 6 7 7 7 8 8 7 10 9 7 6 6 4 5 7 7 9 7 5 4 6 8 6 3 1 1 2 6 6 6 6 3 2 3 5 7 8 7 7 9 11 9 6 6 7 7 9 7 1 6 5 5 6 8 9 10 11 14 13 14 16 15 14 15 14 14
6 2 3 5 5 5 5 7 8 6 5 5 5 5 6 6 5 6 8 6 6 7 7 7 7 6 8 10 9 10 11 9 8 6 5 5 8 8 9 11 10 8 14 15 10 5 1 2 2 1 2 2 1 3 9 11 8 8 9 8 7 8 9 7 7 8 5 5 8 5 7 11 9 8 9 9 10 10 10 11 12 14 15 15 14 14 15 15
4 3 5 5 3 4 5 8 10 6 4 5 4 3 5 6 3 2 5 5 4 7 7 6 7 7 8 9 8 9 11 10 9 8 8 6 3 5 5 7 7 10 16 14 10 6 3 3 4 3 2 1 0 3 10 14 11 4 3 3 4 4 6 8 8 6 4 4 3 4 12 14 11 10 10 10 10 9 9 10 12 13 14 15 14 14 14 14
4 3 5 4 4 5 5 7 9 6 6 5 2 2 3 4 1 1 3 4 3 4 5 5 7 8 8 9 8 8 8 9 8 6 6 6 2 4 6 6 7 11 13 10 10 7 5 6 8 7 6 5 4 4 7 9 9 7 5 4 4 3 1 3 2 3 4 3 2 8 13 13 11 10 10 9 9 10 10 11 12 13 13 14 15 15 15 14
3 3 5 3 4 6 5 7 8 7 8 8 4 3 4 2 3 3 3 3 1 4 5 3 4 6 6 8 8 5 3 4 4 1 3 5 3 2 4 4 6 11 12 9 8 7 4 5 9 9 9 9 8 8 8 7 6 6 6 6 7 6 6 5 6 6 5 5 8 12 15 14 10 9 9 10 11 13 14 13 14 14 14 13 14 15 16 15
5 4 4 2 4 7 6 6 7 6 6 8 6 6 7 6 5 5 6 5 4 6 7 4 3 5 4 2 1 3 6 5 2 3 5 5 4 1 1 1 2 8 11 8 6 4 3 3 7 8 8 9 10 10 10 10 9 7 6 5 6 5 4 7 8 8 8 10 11 14 14 11 8 9 11 12 13 14 16 15 15 15 16 15 14 16 17 17
6 5 5 4 3 5 4 5 6 5 6 7 6 7 7 7 7 5 7 9 9 7 8 8 7 5 5 9 9 9 8 7 5 5 5 4 3 2 1 1 1 3 8 7 5 3 4 4 6 7 7 7 10 11 11 11 11 12 12 9 5 3 4 6 6 6 6 8 11 11 9 7 8 10 11 12 14 16 16 17 16 15 16 16 16 17 18 18
6 3 4 5 3 4 4 4 6 5 4 5 5 6 6 7 9 6 3 6 10 11 11 11 9 4 5 9 10 10 9 7 5 4 4 3 3 2 2 2 2 2 3 4 5 4 5 4 5 8 7 6 9 11 9 8 9 9 9 9 8 5 2 3 4 6 7 4 5 6 6 8 10 11 12 12 13 14 14 15 15 15 15 15 16 17 18 18
Wind_Direction
350 343 337 331 328 320 315 312 309 304 301 307 310 313 322 334 348 350 352 355 355 352 341 333 322 314 313 313 306 302 299 290 291 277 271 273 246 241 233 224 212 200 192 181 177 186 192 199 203 201 207 208 216 224 214 211 221 223 225 237 237 236 236 240 228 210 265 86 105 96 157 258 227 173 225 214 215 195 172 173 140 163 119 112 133 146 156 158
2 355 346 339 334 327 323 318 310 297 292 301 304 305 313 325 338 343 348 353 358 2 357 349 334 327 321 312 310 305 298 294 292 277 268 258 243 239 223 219 205 194 186 177 184 192 191 196 198 195 205 210 210 218 214 205 216 224 224 233 233 240 242 246 275 310 335 31 78 113 166 256 304 170 210 214 199 176 175 170 153 158 118 118 136 141 150 159
10 4 356 348 342 335 329 324 312 298 291 295 297 299 306 313 324 335 340 346 357 4 3 357 349 343 327 319 316 302 306 308 293 279 262 226 226 220 210 208 199 193 184 182 191 195 196 197 196 196 206 215 208 210 213 200 208 224 229 236 231 242 255 266 302 300 330 342 315 132 176 229 222 188 197 212 196 179 181 169 165 159 139 146 144 144 153 158
12 9 5 357 350 342 335 329 319 310 301 294 291 291 296 301 309 321 328 338 352 0 4 358 358 356 338 330 317 311 323 308 280 237 187 181 180 186 202 193 191 187 176 185 201 199 203 203 199 202 211 221 212 209 213 202 204 219 225 241 238 240 264 260 226 246 254 286 278 304 245 225 184 188 194 199 201 188 180 168 168 163 163 162 147 150 157 160
8 8 8 4 357 349 340 335 329 321 313 303 294 286 288 293 297 308 315 325 341 354 2 355 359 360 349 343 321 324 329 308 149 135 163 167 140 141 184 184 183 173 167 190 209 201 207 209 203 207 218 227 216 211 215 212 210 223 228 239 250 260 285 264 218 223 226 240 253 245 243 252 180 205 201 194 200 191 179 181 169 159 173 167 151 153 156 164
2 3 3 4 1 355 346 340 335 328 322 313 303 289 285 286 290 297 303 312 325 339 351 351 355 356 355 350 328 327 296 286 98 174 209 158 143 98 152 176 176 168 173 205 208 203 210 211 207 208 219 229 225 218 216 215 210 228 235 232 248 260 270 259 210 177 222 235 230 230 256 300 254 226 211 203 194 182 172 173 152 150 171 167 151 152 156 166
355 356 356 358 359 358 353 344 339 333 328 319 310 299 287 282 285 290 293 301 309 322 339 342 341 347 352 347 333 299 256 269 267 211 211 180 172 98 125 167 170 170 186 212 203 203 209 209 211 211 218 226 230 224 218 221 213 224 243 232 238 241 240 248 241 203 219 233 233 243 275 253 243 231 202 212 184 168 159 149 145 150 162 162 151 149 156 163
350 350 349 351 351 355 354 349 344 337 334 327 318 308 296 286 281 285 288 291 298 308 321 327 330 337 341 344 328 272 250 248 223 221 222 202 187 128 130 156 166 174 194 210 201 203 206 210 213 213 222 225 233 229 219 226 219 221 243 244 238 231 235 241 243 240 226 228 232 241 256 235 237 250 210 214 176 166 172 164 185 172 154 160 156 150 155 160
345 345 345 344 344 346 348 349 346 340 336 331 326 317 306 295 284 283 284 286 291 296 306 314 319 325 328 335 312 276 247 194 225 243 235 204 193 166 144 157 169 181 201 209 205 208 208 213 215 216 230 231 236 233 222 227 220 216 234 244 243 230 233 236 235 237 231 229 229 229 239 232 230 255 246 221 184 166 179 176 187 185 161 160 160 154 155 160
341 341 340 339 338 338 339 341 343 342 338 332 329 323 314 305 293 286 282 283 284 287 294 301 309 315 322 325 295 274 162 134 238 240 222 199 190 172 159 174 181 191 206 208 208 212 212 218 217 222 238 246 248 238 225 226 223 225 234 239 240 235 231 231 232 231 229 226 225 228 230 230 221 217 234 215 184 171 186 188 188 188 164 151 158 158 158 162
337 337 335 334 334 333 333 333 335 338 338 335 329 325 322 315 305 294 284 278 276 280 285 292 302 304 313 305 275 268 101 126 200 208 207 189 179 176 172 186 193 201 211 210 213 216 220 228 227 226 232 245 250 241 233 228 230 245 251 245 238 237 235 232 234 228 229 224 218 229 232 230 215 204 234 212 175 180 192 191 192 193 165 151 171 165 161 165
335 334 332 330 329 328 328 327 328 330 333 334 329 326 326 323 318 306 293 282 276 274 277 285 292 297 311 288 261 257 280 245 194 179 193 185 180 181 182 196 202 206 216 217 218 221 226 233 234 230 225 239 241 237 239 226 229 245 247 254 239 232 236 231 232 226 226 224 210 220 231 230 212 209 233 208 165 185 197 198 196 199 171 152 178 177 165 166
336 332 330 327 325 324 323 323 323 322 325 329 327 325 323 325 324 315 308 295 285 278 278 283 285 294 298 275 259 247 253 239 209 191 181 187 188 190 197 206 208 212 223 224 224 222 224 229 230 231 234 247 236 221 256 223 224 242 235 245 244 232 233 223 223 223 221 221 209 210 221 225 212 215 227 199 172 203 204 203 202 201 177 155 177 185 165 164
336 332 329 326 323 320 319 318 318 318 318 321 322 322 319 318 317 316 313 304 297 288 284 282 285 291 266 265 266 251 249 235 214 204 187 189 191 199 206 207 211 216 223 227 231 222 218 224 227 235 239 243 246 221 234 224 217 236 233 232 241 240 234 212 210 214 215 211 202 206 226 231 214 208 216 198 184 207 209 206 207 204 187 165 173 176 163 166
335 332 329 325 322 319 316 314 313 314 314 314 315 317 316 312 308 309 307 303 299 291 288 289 290 278 261 268 256 245 257 239 217 208 196 193 194 203 205 203 209 211 218 220 227 222 211 216 219 231 231 229 252 255 216 225 213 223 231 228 226 234 246 216 197 201 209 197 190 207 232 238 235 212 202 192 183 198 210 207 205 204 190 170 168 170 167 168
334 332 330 325 322 318 315 312 309 309 310 311 310 311 312 310 305 301 301 299 293 290 287 295 300 265 271 281 230 232 258 228 212 204 196 196 200 207 198 197 202 203 211 209 216 217 207 211 215 227 232 218 232 241 219 221 213 213 223 233 223 217 243 225 182 188 206 196 189 209 229 231 253 226 184 176 189 200 209 209 203 204 189 171 176 174 162 158
334 333 330 326 323 318 315 311 308 307 306 307 307 307 309 310 304 297 294 290 289 292 273 260 283 256 257 264 231 235 225 199 195 192 193 198 203 205 188 190 197 197 201 202 208 206 200 208 212 225 242 226 214 224 228 221 213 212 212 229 233 219 231 222 176 180 203 211 199 202 226 234 248 184 159 168 195 205 210 212 204 202 188 177 185 173 155 155
334 333 330 327 323 318 315 311 308 305 305 306 306 306 307 307 299 288 284 284 288 289 267 245 231 253 247 227 234 226 186 179 180 185 189 193 201 202 190 192 193 189 193 197 201 197 193 200 208 217 228 223 215 215 223 224 214 215 213 219 233 224 223 224 201 179 196 212 208 195 216 236 223 148 165 187 201 207 213 213 207 202 189 185 190 173 160 169
335 334 331 328 324 320 314 311 308 305 305 303 304 308 309 304 293 281 275 266 239 233 267 214 196 249 302 217 226 214 165 171 174 183 187 188 196 197 192 194 190 189 194 191 191 194 189 196 209 216 216 210 215 218 220 233 231 221 218 216 229 227 213 229 224 173 188 205 205 207 209 225 232 200 177 192 203 209 213 212 211 204 190 188 191 175 168 179
333 333 332 329 326 322 314 311 308 305 304 301 308 313 305 301 290 273 224 224 231 248 273 248 215 251 282 242 226 208 179 181 189 192 187 185 189 190 189 191 189 195 204 187 180 192 191 204 216 214 223 210 210 227 230 257 276 249 227 217 227 232 206 225 226 161 183 211 201 216 219 214 230 224 189 189 200 207 211 211 210 203 190 188 190 177 171 176
331 331 330 329 327 324 316 311 306 303 301 297 303 296 288 308 315 327 314 260 254 255 261 260 246 251 258 255 232 202 194 202 205 196 185 183 187 188 184 188 191 198 209 189 171 188 197 217 223 215 232 224 206 224 234 267 296 270 247 230 222 231 216 214 209 156 178 222 207 212 225 221 221 228 213 189 192 205 209 209 207 204 194 187 188 177 169 170
329 329 328 327 326 325 319 312 305 300 295 288 288 271 276 311 317 313 315 291 279 268 255 252 250 248 250 249 230 213 217 208 200 194 183 182 191 191 179 188 200 194 202 193 170 188 209 226 230 217 226 233 205 215 232 243 251 251 254 250 225 224 224 205 176 146 174 210 223 214 221 227 216 227 226 190 188 209 210 209 207 206 198 185 185 177 168 169
327 326 326 326 325 325 321 315 307 297 289 281 275 259 267 305 311 305 301 285 286 280 260 244 240 239 237 232 215 208 219 213 200 189 180 184 197 199 185 191 207 199 196 198 188 197 210 216 225 217 197 205 208 209 229 233 232 240 242 242 235 216 221 209 164 174 194 202 236 235 223 227 219 224 226 192 193 209 209 210 208 208 204 188 183 176 170 174
321 321 322 322 323 324 322 318 307 298 291 278 270 260 264 287 299 309 300 277 279 277 259 237 232 235 229 220 205 200 211 217 211 188 179 191 201 202 202 200 211 210 194 200 207 221 232 209 200 193 163 192 214 210 219 227 220 226 234 238 238 219 219 221 173 190 198 203 237 253 236 223 218 213 214 203 204 207 204 206 207 208 205 189 180 175 175 181
314 314 315 316 319 321 324 327 320 315 304 279 283 277 265 274 285 306 303 277 269 253 230 212 215 227 214 198 192 199 208 217 222 196 179 195 202 197 207 208 217 216 193 201 213 231 241 191 153 175 179 201 215 208 210 223 224 218 224 236 246 237 218 189 154 181 203 206 212 226 236 227 214 208 209 209 206 202 199 203 207 206 202 189 178 178 181 184
310 308 309 310 313 317 326 336 329 317 300 274 277 268 245 272 288 297 290 275 269 207 174 180 195 196 188 187 184 193 206 211 218 201 179 195 206 202 210 204 216 227 203 199 212 239 229 154 164 206 201 205 216 215 207 212 236 230 202 219 244 255 232 199 180 193 224 223 191 202 230 243 213 206 207 203 199 199 200 205 206 203 203 193 180 179 181 185
309 307 306 306 310 314 316 305 279 288 291 275 231 248 270 283 288 292 266 267 262 189 151 160 179 170 183 190 180 187 214 192 198 198 182 193 204 208 226 205 202 232 221 199 208 230 216 170 184 207 205 211 219 221 208 203 229 247 196 198 224 242 240 223 211 214 227 237 181 197 226 251 228 210 198 188 195 202 198 203 209 205 203 197 185 180 181 186
310 307 306 306 307 310 306 298 290 278 275 291 274 266 286 282 275 268 253 270 253 165 147 143 147 157 176 182 183 196 226 158 179 187 180 193 199 200 227 223 207 218 213 214 209 191 203 210 198 198 208 215 219 222 209 202 223 251 225 190 208 226 230 226 226 232 231 230 218 206 219 241 232 206 185 179 195 204 196 197 206 208 202 195 185 177 178 186
311 308 307 304 304 307 302 297 292 268 258 280 268 251 262 271 260 244 247 263 254 190 154 138 149 176 182 178 191 204 198 167 184 174 172 190 201 202 227 231 223 218 202 218 231 185 187 213 205 199 209 213 222 220 196 197 216 245 252 212 207 218 220 220 226 234 232 233 242 218 209 229 226 184 173 180 198 203 196 187 188 200 201 189 176 171 173 185
311 309 305 302 306 312 305 300 298 276 251 256 252 236 244 254 237 236 232 237 258 204 145 152 169 180 181 178 195 208 207 200 188 164 171 185 197 209 229 229 235 234 204 211 235 236 172 202 208 205 214 224 234 217 176 211 214 202 239 226 210 213 215 221 230 238 234 229 243 229 210 227 228 173 176 192 201 201 188 164 161 184 183 168 171 178 178 185
313 309 302 302 306 302 293 296 305 293 256 249 239 216 225 236 229 238 225 249 283 203 165 185 179 167 181 189 193 201 206 199 168 167 176 181 189 204 219 219 233 236 210 206 228 237 217 203 210 215 226 247 281 189 200 231 224 207 227 218 202 205 207 215 219 226 229 226 238 227 208 220 225 187 196 186 169 177 178 166 167 172 167 170 185 191 186 184
314 308 302 303 302 290 273 249 234 257 263 242 220 208 220 222 222 236 227 244 275 188 183 199 184 176 189 200 194 190 200 187 171 182 186 182 188 197 208 210 200 207 212 205 210 219 218 209 199 206 219 231 241 209 193 215 223 217 224 214 203 201 199 214 212 212 223 225 232 216 201 213 206 97 99 132 112 95 133 147 152 164 174 180 184 193 195 185
314 309 305 302 298 291 274 253 249 257 252 227 218 220 227 226 222 228 227 233 213 117 218 219 202 202 195 204 200 189 201 190 175 189 191 191 197 195 209 216 201 206 221 207 201 200 206 209 200 201 202 205 228 229 181 190 208 211 219 213 206 202 201 218 217 213 221 210 202 202 197 218 204 122 91 97 106 106 101 115 132 154 171 178 185 191 193 181
314 310 310 303 296 289 278 279 280 266 232 214 222 221 223 232 231 226 227 239 240 201 237 235 220 219 207 219 213 190 205 198 179 191 192 192 204 198 206 216 208 214 228 217 210 201 204 206 199 204 191 183 214 241 227 202 198 207 225 221 212 214 212 224 229 228 233 206 185 186 188 225 219 148 124 133 129 128 124 123 132 140 158 181 194 187 181 180
317 316 316 310 305 295 285 295 302 280 214 206 219 218 219 226 228 232 232 242 248 230 217 225 232 233 220 223 221 203 213 209 184 196 201 194 205 203 200 211 212 213 219 215 213 211 219 216 194 205 205 185 202 230 242 234 208 204 222 225 221 225 223 235 256 32 317 262 192 185 195 190 148 133 132 128 121 129 138 143 136 133 152 165 158 153 164 176
326 324 324 321 305 294 290 295 295 275 209 209 220 218 221 226 223 235 242 246 260 252 230 220 222 234 229 218 222 210 210 213 195 196 206 203 205 205 202 205 207 212 221 218 206 209 224 229 189 193 206 205 206 215 222 232 230 202 217 226 223 233 244 245 221 150 205 259 226 199 205 153 138 154 148 140 140 139 136 134 132 132 134 126 115 124 144 155
324 310 312 207 263 287 284 280 280 249 214 217 227 226 227 231 231 243 263 286 288 276 252 239 222 227 232 223 222 210 202 210 209 203 205 206 205 202 204 203 198 210 227 230 228 221 231 245 185 181 200 210 216 235 230 231 244 228 218 222 214 229 256 260 247 199 203 231 229 208 207 192 181 178 157 159 165 146 126 120 116 114 107 98 99 109 120 129
310 264 246 234 290 303 287 264 249 216 213 221 231 238 242 240 237 243 252 273 284 265 248 250 237 223 230 230 219 208 210 211 208 212 213 210 207 200 204 205 194 201 213 218 224 217 228 246 191 188 210 202 197 240 241 228 239 250 265 251 225 227 231 229 239 229 218 229 230 212 209 215 216 182 170 168 157 136 126 123 117 109 102 95 93 100 107 114
300 248 232 268 317 318 289 226 206 205 214 224 227 231 243 249 250 248 246 260 275 263 250 250 246 234 237 244 235 213 236 228 207 212 220 212 221 239 252 240 198 195 200 205 214 198 209 255 215 196 220 204 183 217 231 215 218 235 268 266 241 246 242 228 235 239 232 228 229 223 210 196 18 109 157 144 132 135 132 126 123 114 108 102 96 100 104 105
286 251 232 14 329 332 318 182 193 211 216 225 233 232 236 243 249 249 245 250 265 263 260 256 250 243 245 250 244 224 270 264 236 237 241 206 197 228 284 283 225 200 197 203 216 207 193 231 229 201 219 222 199 209 221 223 212 209 226 237 235 237 235 237 246 248 249 236 224 231 211 123 44 25 86 103 116 138 132 124 121 110 104 103 100 101 102 102
279 256 43 17 326 339 62 187 208 223 222 225 235 242 247 248 252 253 244 241 251 258 265 271 266 256 253 253 242 213 224 256 240 254 284 242 203 192 218 268 246 198 192 208 220 215 196 212 224 214 213 224 229 221 216 228 240 223 216 222 228 228 224 235 234 230 246 255 245 239 208 106 46 358 46 89 115 132 128 122 118 109 104 101 98 98 100 102
281 274 35 6 331 277 249 245 229 228 233 237 237 239 251 266 264 263 255 241 242 246 250 261 265 260 264 269 263 244 231 236 221 207 211 246 306 267 198 213 223 188 189 212 212 315 305 225 232 234 227 224 238 243 226 242 272 265 245 231 228 227 228 239 241 234 240 251 259 256 232 115 42 342 16 76 116 126 124 121 119 112 106 105 100 95 95 100
313 7 42 9 350 277 252 263 244 233 242 252 260 260 264 273 249 250 253 243 235 234 233 239 248 251 253 258 269 269 255 253 248 224 186 163 272 292 185 163 183 197 209 207 158 44 345 225 236 239 237 232 223 232 237 242 256 258 251 246 245 244 239 243 251 256 253 250 252 253 236 147 97 352 1 107 122 119 115 116 117 111 105 108 106 101 101 103
332 344 30 20 9 307 264 288 282 270 267 262 271 274 267 271 262 252 252 246 242 244 238 240 244 245 250 255 264 267 263 263 256 240 210 171 192 281 270 140 141 152 159 90 98 135 206 229 243 236 232 234 225 216 215 218 231 238 236 239 245 245 245 254 259 251 256 262 259 259 242 119 112 129 141 123 116 112 110 112 116 114 111 111 109 108 109 105
308 274 295 21 18 360 345 341 319 306 301 286 281 275 261 260 263 265 266 259 262 273 262 257 262 258 260 261 255 258 262 268 266 256 236 177 170 214 227 198 173 146 102 87 92 130 178 18 273 248 241 232 221 223 268 272 254 239 232 237 242 239 244 254 254 242 244 247 250 254 180 112 122 142 133 116 108 107 110 113 117 120 117 113 111 109 106 101
318 338 342 359 15 12 23 15 346 319 307 301 287 274 264 251 239 248 259 251 254 271 267 267 276 268 259 259 253 253 251 245 248 259 257 212 173 183 198 196 204 174 128 118 117 119 102 57 69 301 287 246 221 332 335 329 300 243 225 231 235 238 248 254 246 246 249 251 256 237 147 133 137 145 136 122 111 101 99 107 115 121 121 118 116 111 106 102
328 2 351 345 357 354 13 21 5 344 324 312 284 277 274 259 234 212 246 240 240 266 268 268 273 263 254 257 254 252 250 241 237 245 258 256 144 128 167 183 185 145 130 140 156 153 183 198 152 126 122 147 136 309 321 330 328 294 227 236 244 231 235 241 244 257 272 276 281 127 128 132 137 141 132 118 110 101 96 103 111 119 126 127 123 115 110 108
352 35 21 351 337 357 21 16 5 360 352 337 289 294 298 266 257 49 274 259 240 275 279 265 273 270 255 251 250 247 246 243 240 243 257 260 206 151 174 169 148 147 156 179 186 182 223 213 175 167 180 184 178 219 271 307 331 349 23 36 25 37 162 212 247 301 294 264 157 122 120 119 125 132 118 105 107 107 107 111 113 119 129 134 131 122 116 111
23 51 45 21 6 26 43 20 12 26 12 358 12 15 360 26 56 40 354 306 307 352 336 277 272 290 268 250 248 244 259 258 242 299 343 294 276 207 184 165 146 165 185 200 188 192 235 207 181 192 204 205 201 200 211 235 276 316 348 12 19 37 68 80 68 60 67 87 106 115 111 106 118 132 117 109 112 110 109 111 114 117 123 129 132 128 119 112
19 9 4 26 50 41 46 35 28 45 25 2 9 11 5 25 44 48 38 28 36 14 359 347 321 336 6 4 322 61 41 18 22 38 5 334 326 326 220 230 162 175 190 193 170 174 213 180 177 197 211 209 205 203 203 205 215 239 271 321 345 5 66 76 65 67 87 101 107 107 104 105 121 133 130 132 133 125 116 112 113 116 117 118 121 124 118 111
17 9 345 335 28 17 22 53 46 43 39 24 12 5 5 8 4 22 54 44 35 23 8 358 333 333 51 53 41 44 33 12 11 6 345 335 333 337 353 351 336 201 197 183 139 155 213 190 173 202 223 213 200 203 206 203 208 222 231 237 257 309 26 55 50 43 73 117 129 122 112 119 133 136 139 144 144 137 125 118 117 119 120 118 113 112 109 103
356 2 336 322 356 359 351 59 65 43 41 44 28 14 5 354 350 356 31 32 25 21 14 3 342 331 62 48 24 13 360 346 347 337 320 318 318 348 41 40 2 312 228 182 143 173 220 214 192 206 223 216 203 202 202 206 215 224 229 222 203 176 103 53 53 42 35 61 141 137 115 123 137 143 143 139 135 131 124 121 120 114 109 106 100 96 94 91
Height
1508 1507 1506 1505 1505 1504 1504 1503 1503 1502 1502 1501 1500 1500 1499 1499 1498 1497 1496 1495 1494 1493 1493 1492 1491 1490 1489 1489 1488 1487 1486 1486 1485 1484 1483 1481 1482 1481 1482 1482 1482 1483 1484 1486 1489 1491 1491 1492 1493 1494 1495 1494 1493 1490 1489 1489 1488 1487 1486 1486 1481 1474 1468 1460 1457 1458 1457 1458 1461 1464 1465 1464 1462 1464 1466 1467 1467 1466 1470 1472 1473 1476 1477 1478 1480 1480 1481 1484
1508 1507 1506 1505 1504 1504 1503 1502 1502 1501 1501 1500 1500 1499 1499 1498 1497 1496 1496 1495 1494 1493 1492 1491 1491 1490 1489 1488 1487 1486 1485 1484 1483 1482 1481 1480 1480 1480 1480 1481 1481 1482 1483 1485 1487 1489 1490 1491 1491 1492 1493 1491 1490 1488 1486 1486 1486 1484 1482 1482 1477 1468 1460 1455 1455 1456 1458 1461 1463 1464 1466 1465 1464 1464 1466 1466 1465 1467 1471 1474 1475 1475 1478 1480 1482 1482 1482 1484
1508 1507 1506 1505 1504 1503 1502 1501 1501 1500 1500 1500 1499 1499 1498 1498 1497 1496 1495 1494 1493 1493 1492 1491 1490 1489 1489 1488 1487 1486 1484 1483 1482 1479 1478 1479 1479 1479 1480 1480 1480 1481 1482 1485 1487 1489 1489 1490 1490 1491 1491 1487 1485 1485 1483 1483 1484 1481 1479 1478 1472 1463 1457 1455 1460 1461 1463 1465 1464 1465 1466 1465 1466 1465 1467 1466 1465 1466 1469 1472 1475 1476 1478 1481 1481 1482 1483 1484
1508 1507 1505 1504 1503 1502 1502 1501 1500 1500 1499 1499 1498 1498 1497 1497 1496 1495 1495 1494 1493 1492 1492 1491 1490 1489 1488 1487 1487 1485 1484 1483 1480 1478 1477 1478 1479 1478 1479 1479 1480 1481 1482 1485 1488 1488 1489 1489 1489 1490 1488 1484 1482 1482 1480 1481 1481 1478 1477 1474 1465 1460 1459 1459 1463 1465 1466 1468 1467 1466 1467 1465 1465 1466 1466 1466 1468 1466 1465 1469 1474 1477 1479 1481 1480 1481 1483 1484
1508 1507 1506 1504 1503 1502 1501 1500 1500 1499 1498 1498 1497 1497 1496 1496 1495 1495 1494 1494 1493 1492 1491 1491 1490 1489 1488 1487 1486 1485 1485 1481 1477 1477 1477 1478 1478 1478 1478 1478 1480 1481 1482 1485 1487 1488 1488 1488 1488 1488 1486 1482 1479 1478 1478 1477 1478 1476 1473 1470 1463 1460 1463 1463 1464 1467 1469 1471 1469 1468 1467 1465 1464 1466 1464 1464 1468 1467 1465 1467 1471 1476 1481 1480 1479 1480 1483 1485
1508 1507 1506 1504 1503 1502 1501 1500 1499 1498 1497 1497 1496 1495 1495 1495 1494 1494 1494 1493 1492 1492 1491 1490 1489 1489 1487 1487 1486 1485 1485 1479 1475 1477 1477 1478 1478 1478 1478 1478 1479 1480 1482 1485 1486 1486 1486 1486 1486 1485 1483 1479 1476 1474 1475 1475 1476 1476 1470 1467 1466 1464 1466 1465 1465 1469 1471 1471 1469 1467 1467 1466 1466 1465 1463 1464 1466 1466 1467 1468 1469 1475 1480 1481 1479 1480 1483 1485
1508 1507 1506 1504 1503 1502 1501 1500 1499 1498 1497 1496 1495 1495 1494 1494 1493 1493 1493 1492 1492 1491 1491 1490 1489 1488 1487 1487 1485 1485 1484 1479 1476 1477 1477 1478 1478 1478 1478 1478 1479 1480 1482 1484 1484 1485 1485 1484 1483 1482 1480 1478 1474 1472 1473 1473 1473 1474 1469 1466 1466 1466 1467 1468 1468 1470 1472 1471 1469 1468 1468 1469 1468 1465 1464 1464 1465 1468 1469 1470 1472 1475 1479 1481 1480 1480 1483 1486
1507 1506 1505 1504 1503 1502 1501 1500 1498 1497 1496 1495 1494 1494 1493 1493 1492 1492 1492 1491 1491 1491 1490 1489 1489 1488 1487 1486 1485 1484 1481 1478 1475 1476 1477 1478 1478 1478 1478 1478 1479 1480 1482 1483 1483 1483 1483 1482 1481 1480 1478 1475 1473 1470 1471 1472 1469 1471 1470 1465 1463 1465 1468 1469 1470 1470 1470 1471 1471 1471 1470 1469 1467 1465 1465 1464 1465 1469 1471 1472 1474 1475 1478 1482 1481 1480 1483 1486
1507 1506 1505 1504 1502 1501 1500 1499 1498 1497 1496 1495 1494 1493 1492 1492 1491 1491 1491 1490 1490 1490 1489 1489 1488 1488 1487 1486 1486 1482 1477 1475 1475 1475 1477 1477 1477 1478 1478 1478 1479 1480 1482 1482 1482 1482 1482 1480 1479 1478 1476 1473 1472 1469 1469 1470 1467 1467 1469 1466 1463 1465 1468 1469 1469 1469 1469 1470 1470 1471 1469 1468 1466 1467 1467 1464 1465 1470 1472 1473 1474 1474 1477 1481 1483 1481 1483 1486
1506 1505 1504 1503 1502 1501 1500 1499 1498 1496 1495 1494 1493 1492 1491 1491 1490 1490 1489 1489 1489 1489 1489 1489 1488 1487 1486 1486 1486 1480 1474 1475 1475 1475 1476 1476 1477 1477 1477 1479 1479 1480 1482 1482 1481 1481 1480 1479 1478 1478 1476 1473 1470 1468 1467 1467 1465 1464 1466 1465 1463 1464 1466 1467 1467 1466 1467 1468 1468 1469 1468 1467 1465 1469 1469 1463 1464 1469 1471 1472 1473 1474 1476 1480 1483 1483 1484 1486
1506 1504 1503 1502 1501 1500 1499 1498 1497 1496 1495 1493 1492 1492 1491 1490 1489 1489 1488 1488 1488 1488 1488 1487 1487 1486 1486 1486 1485 1477 1474 1476 1476 1475 1475 1475 1476 1476 1478 1480 1480 1481 1481 1481 1481 1480 1480 1479 1478 1478 1476 1474 1471 1468 1467 1466 1466 1465 1465 1465 1462 1462 1464 1465 1464 1465 1465 1465 1466 1467 1467 1465 1463 1467 1465 1459 1463 1468 1470 1471 1473 1474 1475 1481 1484 1484 1485 1486
1505 1504 1502 1501 1500 1499 1498 1497 1496 1495 1494 1493 1492 1491 1490 1489 1488 1488 1487 1487 1486 1487 1487 1487 1487 1486 1485 1485 1481 1476 1475 1476 1475 1475 1475 1475 1476 1477 1478 1480 1480 1480 1480 1480 1480 1480 1480 1479 1479 1477 1474 1474 1471 1469 1467 1466 1467 1466 1466 1467 1463 1462 1463 1463 1462 1463 1463 1463 1464 1467 1469 1466 1461 1464 1462 1458 1464 1467 1469 1470 1472 1473 1475 1481 1485 1486 1486 1486
1504 1503 1501 1500 1499 1498 1497 1496 1495 1494 1493 1492 1491 1490 1489 1488 1487 1487 1486 1486 1485 1485 1485 1486 1485 1485 1485 1482 1476 1474 1475 1475 1474 1475 1475 1475 1476 1477 1478 1479 1479 1480 1480 1479 1479 1480 1480 1479 1480 1477 1474 1474 1469 1468 1467 1465 1467 1466 1465 1467 1465 1463 1461 1458 1459 1460 1461 1461 1461 1465 1472 1467 1459 1461 1460 1459 1466 1468 1468 1469 1471 1472 1474 1479 1485 1486 1486 1486
1503 1502 1500 1499 1498 1497 1496 1495 1494 1493 1492 1491 1490 1489 1488 1487 1487 1485 1485 1485 1484 1484 1484 1485 1484 1484 1484 1478 1473 1473 1473 1473 1473 1473 1475 1475 1476 1477 1477 1478 1478 1479 1479 1479 1479 1479 1479 1480 1480 1477 1475 1474 1468 1467 1468 1466 1467 1467 1466 1465 1464 1463 1456 1449 1452 1456 1458 1459 1458 1464 1470 1463 1453 1455 1456 1457 1464 1467 1467 1468 1470 1471 1473 1476 1481 1484 1485 1486
1502 1501 1500 1499 1497 1496 1495 1494 1493 1492 1491 1490 1489 1488 1487 1487 1485 1485 1485 1483 1483 1483 1483 1484 1483 1483 1482 1475 1470 1471 1470 1471 1471 1472 1474 1474 1475 1476 1476 1477 1478 1478 1479 1479 1479 1479 1479 1480 1479 1476 1474 1473 1469 1468 1468 1466 1465 1465 1468 1466 1461 1461 1454 1443 1444 1450 1454 1456 1457 1463 1467 1460 1449 1445 1449 1455 1460 1464 1465 1466 1468 1469 1471 1475 1479 1483 1485 1486
1501 1500 1499 1497 1496 1495 1494 1493 1492 1491 1490 1489 1488 1487 1486 1485 1484 1484 1483 1482 1483 1482 1482 1483 1482 1483 1480 1472 1468 1469 1468 1468 1469 1471 1472 1473 1474 1474 1475 1476 1477 1477 1478 1478 1478 1478 1479 1478 1477 1474 1471 1470 1470 1469 1466 1466 1464 1461 1464 1464 1456 1456 1454 1442 1439 1445 1449 1453 1456 1461 1463 1458 1446 1436 1440 1452 1458 1461 1462 1463 1466 1469 1470 1475 1479 1481 1483 1486
1500 1499 1497 1496 1495 1494 1493 1492 1491 1490 1489 1488 1487 1486 1485 1484 1483 1483 1481 1481 1481 1480 1482 1481 1482 1484 1476 1469 1468 1467 1466 1466 1467 1469 1470 1472 1473 1473 1474 1475 1476 1477 1477 1477 1478 1477 1477 1477 1475 1473 1469 1466 1466 1466 1468 1469 1464 1458 1458 1458 1452 1450 1451 1444 1440 1444 1447 1450 1453 1457 1458 1453 1444 1436 1441 1452 1456 1458 1460 1461 1464 1467 1470 1474 1478 1480 1482 1485
1499 1498 1496 1495 1494 1493 1492 1491 1490 1489 1488 1487 1486 1485 1484 1483 1481 1480 1479 1479 1480 1481 1481 1480 1483 1481 1470 1465 1466 1463 1464 1466 1467 1468 1469 1471 1472 1472 1473 1474 1474 1475 1475 1476 1476 1475 1475 1474 1471 1470 1467 1466 1463 1463 1468 1465 1458 1456 1455 1455 1452 1446 1445 1442 1438 1441 1445 1448 1450 1454 1457 1452 1445 1443 1447 1453 1455 1457 1458 1460 1463 1466 1469 1473 1475 1478 1482 1485
1498 1497 1495 1494 1493 1492 1491 1490 1489 1488 1487 1486 1485 1484 1483 1481 1479 1478 1477 1478 1479 1479 1476 1474 1476 1472 1464 1463 1464 1463 1464 1465 1466 1467 1468 1469 1471 1472 1472 1473 1473 1474 1473 1472 1471 1471 1471 1470 1469 1468 1465 1462 1460 1457 1458 1453 1446 1446 1447 1450 1450 1444 1442 1440 1433 1434 1441 1447 1450 1452 1453 1452 1447 1444 1447 1452 1455 1457 1458 1460 1462 1464 1467 1471 1473 1476 1481 1486
1497 1496 1494 1493 1492 1491 1489 1488 1488 1487 1486 1485 1484 1484 1482 1480 1476 1474 1476 1477 1475 1472 1468 1468 1468 1464 1462 1462 1462 1463 1464 1465 1465 1466 1467 1468 1470 1470 1470 1471 1471 1471 1469 1466 1468 1468 1468 1469 1466 1464 1459 1455 1457 1454 1451 1449 1444 1441 1442 1445 1446 1441 1441 1439 1433 1433 1440 1446 1449 1448 1448 1449 1447 1443 1444 1450 1454 1456 1457 1459 1461 1462 1466 1470 1472 1475 1480 1484
1496 1495 1493 1492 1491 1489 1488 1487 1486 1486 1485 1484 1484 1484 1482 1480 1476 1475 1476 1473 1469 1467 1466 1464 1464 1462 1460 1460 1460 1461 1462 1463 1463 1464 1465 1467 1468 1467 1467 1468 1468 1467 1464 1461 1464 1465 1466 1467 1461 1457 1454 1450 1453 1453 1451 1453 1452 1448 1445 1444 1443 1441 1439 1435 1432 1436 1441 1447 1447 1445 1447 1446 1444 1443 1441 1445 1451 1454 1455 1457 1459 1461 1464 1468 1471 1474 1478 1480
1495 1494 1492 1491 1489 1488 1487 1486 1485 1484 1484 1483 1483 1483 1482 1481 1480 1478 1477 1471 1464 1463 1462 1461 1460 1459 1458 1459 1460 1461 1460 1459 1460 1461 1463 1465 1466 1464 1463 1464 1464 1462 1459 1458 1462 1466 1467 1464 1456 1451 1450 1449 1451 1453 1454 1456 1458 1455 1450 1447 1444 1440 1436 1431 1432 1439 1444 1449 1449 1444 1446 1445 1441 1442 1439 1441 1448 1452 1453 1455 1457 1459 1462 1466 1469 1472 1476 1479
1494 1492 1491 1490 1488 1487 1486 1484 1484 1483 1482 1482 1481 1482 1482 1481 1480 1480 1479 1472 1462 1457 1456 1455 1455 1455 1456 1457 1457 1459 1458 1455 1455 1458 1460 1463 1462 1461 1460 1461 1459 1457 1456 1456 1458 1464 1464 1458 1450 1447 1449 1452 1455 1456 1457 1459 1459 1457 1452 1451 1446 1438 1437 1437 1438 1443 1445 1448 1448 1443 1443 1443 1441 1442 1439 1440 1446 1450 1452 1454 1456 1459 1460 1464 1468 1471 1474 1477
1492 1491 1490 1488 1487 1486 1484 1483 1482 1481 1481 1480 1480 1480 1481 1481 1480 1479 1478 1471 1459 1452 1451 1450 1450 1451 1452 1453 1455 1456 1456 1454 1452 1454 1458 1460 1458 1459 1458 1456 1456 1453 1452 1453 1455 1457 1453 1444 1442 1445 1450 1456 1458 1459 1460 1460 1458 1456 1452 1449 1444 1437 1436 1437 1440 1444 1445 1448 1447 1445 1448 1446 1442 1444 1443 1442 1445 1448 1450 1453 1455 1458 1460 1463 1467 1470 1474 1476
1491 1490 1488 1486 1486 1484 1483 1482 1480 1480 1480 1479 1480 1479 1480 1480 1479 1479 1477 1470 1456 1446 1446 1447 1448 1448 1449 1451 1453 1453 1454 1453 1451 1451 1455 1457 1456 1456 1455 1454 1453 1450 1449 1452 1454 1453 1445 1439 1442 1449 1453 1455 1457 1458 1458 1459 1456 1453 1451 1447 1441 1435 1432 1436 1443 1447 1452 1454 1447 1447 1459 1454 1440 1442 1445 1443 1444 1447 1450 1452 1454 1456 1459 1462 1466 1469 1472 1475
1489 1488 1486 1485 1484 1483 1483 1482 1480 1481 1480 1479 1480 1479 1480 1480 1478 1479 1477 1469 1454 1441 1442 1445 1445 1445 1447 1449 1450 1452 1454 1451 1449 1449 1452 1455 1455 1454 1453 1452 1450 1447 1446 1448 1451 1449 1443 1442 1446 1451 1453 1454 1455 1455 1453 1455 1456 1451 1445 1444 1442 1436 1434 1437 1442 1448 1454 1453 1443 1444 1458 1455 1441 1439 1440 1441 1444 1447 1449 1451 1453 1455 1458 1460 1464 1468 1471 1475
1487 1485 1484 1483 1482 1482 1482 1481 1481 1481 1479 1480 1479 1479 1480 1478 1478 1478 1476 1471 1456 1438 1438 1442 1441 1442 1444 1446 1447 1450 1450 1445 1445 1448 1449 1453 1453 1453 1452 1448 1448 1447 1443 1446 1453 1449 1442 1445 1449 1450 1453 1454 1454 1452 1449 1450 1455 1448 1436 1438 1443 1440 1439 1439 1441 1446 1446 1444 1444 1442 1447 1451 1447 1441 1436 1438 1446 1447 1449 1452 1452 1453 1457 1460 1463 1468 1470 1474
1485 1483 1482 1482 1481 1480 1480 1480 1479 1479 1480 1479 1477 1479 1479 1477 1479 1476 1477 1478 1455 1432 1434 1439 1440 1442 1443 1445 1446 1444 1441 1438 1442 1445 1447 1451 1451 1451 1451 1445 1445 1446 1442 1447 1453 1446 1442 1447 1449 1450 1453 1452 1450 1447 1444 1446 1451 1443 1432 1434 1440 1440 1441 1440 1442 1444 1439 1445 1452 1443 1441 1451 1452 1441 1435 1439 1445 1447 1448 1451 1452 1452 1456 1459 1463 1467 1470 1473
1483 1482 1480 1479 1479 1478 1478 1478 1477 1477 1478 1477 1476 1478 1476 1477 1479 1473 1477 1477 1447 1427 1433 1437 1440 1443 1441 1443 1443 1440 1438 1437 1439 1440 1445 1450 1449 1449 1450 1445 1444 1444 1444 1447 1447 1442 1441 1444 1445 1448 1450 1447 1443 1437 1436 1443 1446 1440 1435 1435 1437 1438 1438 1439 1442 1441 1441 1452 1455 1442 1439 1450 1450 1439 1436 1442 1444 1445 1445 1447 1451 1454 1456 1460 1463 1468 1472 1473
1482 1480 1478 1477 1477 1477 1476 1475 1475 1475 1475 1475 1475 1476 1476 1478 1476 1474 1480 1469 1439 1427 1433 1435 1436 1438 1438 1440 1440 1438 1437 1436 1437 1439 1443 1447 1448 1448 1447 1445 1444 1442 1442 1445 1444 1440 1439 1441 1442 1444 1443 1439 1435 1431 1434 1440 1440 1439 1440 1438 1437 1437 1436 1439 1439 1439 1452 1461 1452 1438 1435 1443 1450 1443 1437 1440 1441 1441 1444 1447 1452 1455 1457 1464 1468 1471 1472 1473
1480 1478 1476 1475 1475 1476 1476 1475 1474 1474 1474 1474 1474 1475 1477 1475 1471 1475 1473 1452 1433 1430 1430 1431 1432 1432 1435 1437 1436 1437 1435 1434 1437 1439 1442 1443 1446 1448 1446 1447 1446 1443 1443 1445 1444 1440 1440 1444 1444 1441 1439 1437 1436 1437 1439 1440 1437 1439 1441 1438 1442 1444 1441 1445 1444 1445 1462 1466 1446 1434 1432 1439 1454 1451 1436 1433 1435 1437 1441 1447 1453 1455 1457 1465 1472 1473 1472 1473
1478 1476 1474 1473 1473 1473 1474 1474 1473 1473 1473 1473 1474 1475 1475 1473 1471 1469 1458 1442 1436 1431 1425 1428 1429 1427 1431 1432 1431 1434 1432 1432 1435 1437 1438 1440 1442 1444 1444 1443 1444 1448 1450 1447 1444 1443 1441 1440 1439 1440 1439 1438 1441 1440 1441 1441 1439 1440 1439 1438 1448 1455 1455 1459 1456 1453 1459 1456 1439 1431 1434 1442 1450 1448 1438 1435 1438 1440 1440 1443 1450 1453 1455 1461 1469 1473 1473 1473
1476 1474 1472 1472 1471 1471 1472 1472 1471 1472 1472 1473 1475 1473 1471 1473 1469 1459 1447 1440 1435 1428 1425 1427 1426 1425 1428 1428 1427 1428 1429 1429 1432 1434 1435 1436 1439 1441 1440 1437 1436 1443 1446 1443 1443 1445 1445 1440 1435 1438 1438 1438 1441 1438 1439 1442 1440 1440 1438 1439 1451 1460 1468 1471 1462 1455 1455 1448 1437 1431 1439 1447 1444 1443 1445 1445 1446 1445 1443 1446 1452 1454 1455 1459 1464 1470 1473 1474
1474 1472 1471 1470 1470 1470 1470 1470 1470 1471 1472 1473 1474 1471 1471 1473 1462 1448 1443 1437 1428 1425 1428 1428 1426 1426 1426 1426 1423 1423 1427 1428 1427 1430 1432 1433 1438 1439 1438 1436 1433 1435 1438 1439 1439 1440 1447 1446 1436 1434 1434 1435 1438 1434 1433 1434 1435 1437 1432 1433 1443 1449 1460 1467 1458 1455 1454 1446 1439 1438 1446 1450 1445 1445 1446 1446 1448 1448 1448 1451 1454 1456 1458 1460 1462 1464 1470 1473
1472 1470 1470 1468 1469 1469 1468 1469 1470 1470 1471 1472 1471 1467 1469 1467 1455 1445 1440 1432 1424 1423 1425 1426 1428 1429 1427 1424 1421 1419 1423 1424 1423 1426 1428 1429 1434 1435 1434 1433 1431 1430 1434 1440 1439 1434 1441 1441 1429 1428 1429 1430 1435 1432 1428 1430 1433 1433 1428 1432 1440 1436 1439 1451 1453 1453 1455 1452 1446 1444 1445 1443 1443 1445 1443 1444 1448 1448 1453 1455 1454 1458 1459 1460 1462 1464 1469 1473
1471 1469 1469 1468 1469 1469 1468 1469 1469 1469 1470 1470 1467 1463 1460 1454 1447 1439 1431 1427 1425 1421 1421 1425 1427 1429 1429 1424 1421 1419 1418 1420 1421 1424 1424 1424 1426 1427 1428 1428 1428 1428 1429 1435 1436 1434 1440 1436 1423 1424 1428 1426 1430 1429 1426 1431 1433 1431 1432 1434 1432 1426 1429 1443 1451 1449 1455 1464 1454 1442 1443 1443 1446 1450 1444 1447 1453 1450 1452 1456 1456 1459 1458 1457 1462 1466 1470 1473
1471 1470 1469 1469 1470 1468 1467 1468 1467 1469 1469 1467 1464 1459 1451 1443 1439 1434 1427 1427 1430 1425 1425 1428 1425 1425 1429 1427 1424 1420 1418 1420 1422 1422 1423 1423 1422 1422 1423 1423 1425 1427 1426 1429 1432 1432 1437 1436 1423 1423 1430 1427 1426 1427 1424 1425 1428 1431 1435 1431 1425 1427 1430 1437 1450 1452 1458 1466 1453 1441 1446 1446 1448 1454 1448 1448 1454 1453 1452 1455 1456 1458 1458 1458 1462 1467 1470 1473
1470 1470 1469 1469 1468 1466 1465 1466 1466 1467 1468 1465 1461 1456 1447 1440 1436 1431 1428 1430 1434 1430 1429 1430 1423 1419 1424 1425 1423 1420 1421 1423 1423 1422 1424 1424 1422 1418 1418 1420 1421 1423 1425 1429 1433 1431 1434 1440 1430 1423 1428 1426 1425 1432 1431 1426 1426 1428 1429 1425 1426 1439 1442 1440 1451 1458 1460 1464 1455 1444 1444 1442 1444 1449 1447 1447 1452 1453 1454 1456 1460 1462 1462 1463 1465 1467 1470 1473
1468 1468 1468 1467 1466 1464 1462 1463 1464 1466 1465 1461 1457 1453 1447 1440 1435 1431 1431 1434 1436 1433 1430 1429 1423 1419 1421 1422 1420 1425 1429 1425 1419 1421 1425 1427 1428 1424 1420 1419 1419 1420 1422 1426 1431 1431 1434 1445 1441 1427 1424 1425 1426 1434 1436 1432 1428 1429 1430 1427 1425 1433 1439 1439 1444 1448 1451 1458 1459 1451 1447 1449 1451 1448 1445 1447 1451 1453 1456 1459 1462 1465 1466 1466 1468 1469 1471 1474
1467 1466 1466 1466 1465 1463 1461 1462 1464 1463 1460 1456 1451 1447 1442 1438 1435 1432 1434 1437 1438 1435 1432 1428 1423 1422 1425 1422 1418 1426 1433 1426 1420 1423 1424 1423 1427 1430 1426 1422 1419 1419 1420 1422 1425 1428 1434 1446 1448 1434 1425 1428 1431 1430 1431 1430 1428 1430 1436 1436 1432 1431 1433 1438 1442 1440 1440 1447 1454 1454 1455 1460 1461 1454 1450 1453 1455 1455 1457 1460 1463 1466 1468 1469 1470 1472 1473 1475
1466 1464 1464 1465 1464 1463 1462 1463 1462 1458 1453 1450 1447 1443 1439 1436 1434 1434 1436 1438 1438 1436 1433 1429 1426 1427 1427 1423 1419 1421 1428 1429 1428 1430 1429 1428 1430 1431 1428 1426 1422 1419 1422 1424 1425 1426 1432 1439 1444 1439 1433 1434 1431 1423 1421 1424 1423 1425 1431 1432 1434 1433 1435 1446 1451 1442 1436 1439 1443 1449 1461 1469 1466 1460 1457 1456 1456 1457 1458 1461 1466 1468 1471 1472 1474 1475 1476 1477
1463 1461 1463 1465 1463 1462 1463 1461 1457 1453 1450 1446 1442 1441 1439 1437 1438 1439 1438 1438 1439 1437 1434 1432 1431 1431 1429 1426 1423 1420 1421 1424 1427 1430 1432 1436 1440 1436 1429 1428 1425 1423 1426 1429 1428 1428 1430 1434 1440 1441 1434 1431 1428 1422 1421 1423 1422 1423 1424 1424 1427 1429 1434 1447 1453 1446 1439 1438 1436 1439 1456 1471 1469 1462 1461 1459 1458 1459 1461 1464 1468 1471 1474 1476 1476 1478 1479 1480
1461 1461 1463 1464 1462 1462 1463 1458 1453 1450 1448 1445 1441 1440 1440 1440 1442 1442 1439 1437 1438 1436 1434 1433 1433 1434 1431 1429 1426 1423 1422 1423 1424 1427 1430 1434 1439 1437 1430 1428 1428 1427 1427 1428 1431 1434 1435 1437 1442 1441 1433 1428 1427 1425 1424 1425 1426 1428 1427 1424 1426 1428 1431 1436 1439 1441 1443 1442 1440 1443 1455 1469 1471 1465 1462 1460 1460 1462 1464 1466 1469 1473 1476 1478 1479 1481 1482 1483
1463 1463 1463 1463 1463 1462 1461 1458 1454 1451 1449 1447 1445 1445 1445 1443 1443 1442 1438 1437 1437 1436 1435 1433 1432 1433 1430 1428 1428 1427 1426 1427 1424 1423 1425 1430 1435 1436 1433 1431 1430 1429 1430 1431 1434 1438 1440 1441 1443 1444 1445 1446 1443 1435 1432 1431 1429 1430 1429 1427 1429 1428 1430 1434 1433 1439 1446 1446 1444 1450 1461 1469 1469 1466 1463 1461 1463 1466 1468 1470 1472 1475 1478 1480 1482 1484 1485 1486
1463 1462 1462 1463 1464 1463 1461 1460 1458 1456 1453 1451 1449 1448 1447 1446 1445 1444 1442 1441 1440 1439 1439 1436 1433 1433 1431 1430 1431 1429 1426 1429 1428 1423 1423 1431 1437 1437 1436 1435 1432 1431 1434 1436 1435 1439 1444 1446 1448 1451 1456 1463 1463 1455 1450 1444 1437 1432 1430 1431 1432 1431 1433 1437 1439 1444 1451 1449 1444 1451 1466 1473 1469 1466 1465 1464 1467 1471 1472 1474 1476 1477 1479 1482 1484 1486 1487 1488
1462 1461 1462 1462 1463 1463 1462 1461 1460 1457 1455 1455 1453 1450 1448 1447 1445 1446 1445 1445 1445 1443 1442 1440 1436 1436 1435 1432 1432 1432 1427 1426 1427 1425 1424 1428 1431 1431 1432 1432 1432 1432 1435 1437 1437 1440 1446 1451 1454 1456 1457 1461 1465 1463 1457 1451 1444 1437 1433 1434 1435 1436 1436 1439 1442 1447 1449 1449 1448 1449 1459 1470 1471 1468 1467 1467 1472 1477 1477 1478 1479 1479 1482 1484 1486 1488 1489 1490
1464 1464 1465 1465 1464 1463 1461 1462 1462 1460 1458 1459 1457 1452 1450 1448 1445 1446 1447 1446 1446 1445 1442 1441 1439 1438 1438 1436 1434 1434 1429 1424 1426 1427 1426 1424 1424 1428 1430 1430 1431 1433 1435 1437 1438 1440 1447 1453 1456 1458 1459 1458 1461 1462 1459 1455 1448 1440 1437 1439 1439 1439 1440 1442 1446 1447 1444 1450 1459 1457 1456 1465 1470 1468 1469 1471 1477 1481 1483 1483 1483 1483 1485 1486 1488 1490 1491 1493
1465 1467 1469 1468 1467 1465 1464 1465 1465 1463 1462 1461 1457 1454 1452 1449 1447 1449 1449 1446 1446 1446 1444 1444 1442 1438 1436 1436 1436 1435 1431 1429 1429 1429 1429 1428 1426 1428 1430 1428 1431 1435 1435 1435 1436 1437 1444 1451 1452 1455 1458 1457 1459 1463 1462 1459 1454 1447 1445 1447 1445 1443 1443 1446 1448 1446 1443 1450 1460 1461 1461 1467 1470 1471 1475 1479 1482 1485 1487 1487 1487 1487 1487 1489 1490 1492 1493 1495
1468 1469 1469 1470 1469 1468 1468 1469 1467 1466 1466 1463 1460 1458 1456 1452 1452 1453 1451 1449 1449 1447 1446 1447 1445 1439 1435 1434 1435 1436 1438 1438 1437 1436 1437 1436 1430 1430 1432 1431 1432 1435 1434 1434 1436 1437 1441 1447 1449 1451 1455 1455 1456 1459 1460 1461 1461 1458 1455 1453 1451 1448 1448 1449 1451 1448 1448 1455 1460 1461 1466 1473 1475 1478 1482 1485 1486 1488 1489 1490 1490 1491 1491 1491 1493 1494 1495 1497
1471 1471 1470 1469 1469 1469 1470 1471 1469 1469 1469 1467 1465 1465 1461 1457 1456 1455 1452 1453 1455 1453 1451 1450 1447 1441 1438 1437 1438 1441 1445 1446 1444 1443 1444 1442 1438 1437 1439 1436 1432 1432 1432 1433 1436 1440 1445 1449 1447 1448 1454 1455 1453 1455 1457 1459 1462 1463 1461 1459 1456 1454 1452 1454 1456 1455 1456 1463 1466 1467 1474 1479 1480 1482 1484 1487 1489 1489 1491 1494 1494 1495 1495 1495 1496 1497 1498 1500
1475 1474 1473 1470 1468 1469 1469 1470 1470 1470 1471 1471 1471 1471 1468 1464 1461 1458 1457 1457 1459 1458 1455 1454 1450 1445 1443 1445 1446 1448 1449 1449 1448 1447 1446 1445 1443 1440 1439 1436 1432 1432 1431 1432 1438 1444 1448 1450 1449 1450 1455 1455 1451 1453 1455 1455 1458 1461 1461 1460 1461 1461 1461 1460 1461 1461 1462 1466 1468 1471 1476 1480 1481 1484 1486 1487 1487 1488 1491 1495 1496 1498 1498 1499 1501 1501 1501 1503
1476 1475 1475 1471 1468 1468 1467 1467 1469 1472 1475 1476 1476 1475 1473 1470 1464 1461 1462 1462 1461 1460 1458 1456 1452 1448 1448 1452 1453 1453 1453 1451 1450 1450 1448 1446 1443 1440 1439 1438 1436 1436 1433 1433 1441 1447 1447 1449 1449 1450 1453 1453 1449 1450 1452 1455 1461 1461 1457 1456 1460 1465 1467 1467 1466 1466 1465 1466 1467 1469 1473 1477 1480 1483 1485 1486 1487 1490 1492 1495 1498 1501 1502 1503 1504 1504 1504 1505